| time (UTC) | temp F | wind direction | speed knots | gust knots | rain 1hr in | rain 24hr in | rain mn in | humidity % | barometer mb |
| 20260506193531 | 59 | 266 | 3.5 | 12.2 | 0.00 | 0.00 | 0.00 | 33 | 1018.2 |
| 20260506193048 | 58 | 339 | 4.3 | 12.2 | 0.00 | 0.00 | 0.00 | 31 | 1018.3 |
| 20260506192546 | 58 | 334 | 4.3 | 12.2 | 0.00 | 0.00 | 0.00 | 34 | 1018.3 |
| 20260506192044 | 57 | 335 | 3.5 | 7.0 | 0.00 | 0.00 | 0.00 | 32 | 1018.3 |
| 20260506191603 | 58 | 351 | 3.5 | 9.6 | 0.00 | 0.00 | 0.00 | 34 | 1018.3 |
| 20260506190556 | 58 | 343 | 5.2 | 9.6 | 0.00 | 0.00 | 0.00 | 33 | 1018.4 |
| 20260506190055 | 56 | 314 | 3.5 | 9.6 | 0.00 | 0.00 | 0.00 | 35 | 1018.3 |
| 20260506185553 | 56 | 287 | 4.3 | 7.8 | 0.00 | 0.00 | 0.00 | 34 | 1018.5 |
| 20260506185111 | 56 | 258 | 4.3 | 7.8 | 0.00 | 0.00 | 0.00 | 34 | 1018.5 |
| 20260506184609 | 56 | 342 | 3.5 | 7.8 | 0.00 | 0.00 | 0.00 | 35 | 1018.6 |
| 20260506184045 | 56 | 323 | 3.5 | 9.6 | 0.00 | 0.00 | 0.00 | 33 | 1018.7 |
| 20260506183543 | 56 | 259 | 4.3 | 8.7 | 0.00 | 0.00 | 0.00 | 34 | 1018.7 |
| 20260506183040 | 56 | 319 | 4.3 | 7.8 | 0.00 | 0.00 | 0.00 | 37 | 1018.7 |
| 20260506182538 | 56 | 311 | 3.5 | 9.6 | 0.00 | 0.00 | 0.00 | 38 | 1018.8 |
| 20260506182036 | 55 | 311 | 5.2 | 9.6 | 0.00 | 0.00 | 0.00 | 36 | 1018.9 |
| 20260506181554 | 55 | 317 | 3.5 | 7.0 | 0.00 | 0.00 | 0.00 | 37 | 1018.9 |
| 20260506181035 | 56 | 307 | 1.7 | 7.8 | 0.00 | 0.00 | 0.00 | 38 | 1018.9 |
| 20260506180604 | 57 | 279 | 3.5 | 7.8 | 0.00 | 0.00 | 0.00 | 37 | 1018.9 |
| 20260506180042 | 57 | 277 | 2.6 | 8.7 | 0.00 | 0.00 | 0.00 | 36 | 1018.9 |
| 20260506175538 | 57 | 356 | 0.9 | 8.7 | 0.00 | 0.00 | 0.00 | 38 | 1019.1 |
| 20260506175036 | 57 | 293 | 2.6 | 7.0 | 0.00 | 0.00 | 0.00 | 37 | 1019.1 |
| 20260506174533 | 55 | 305 | 3.5 | 7.0 | 0.00 | 0.00 | 0.00 | 36 | 1019.1 |
| 20260506174031 | 55 | 309 | 2.6 | 10.4 | 0.00 | 0.00 | 0.00 | 37 | 1019.3 |
| 20260506173550 | 55 | 278 | 4.3 | 10.4 | 0.00 | 0.00 | 0.00 | 36 | 1019.3 |
| 20260506173048 | 54 | 294 | 5.2 | 9.6 | 0.00 | 0.00 | 0.00 | 37 | 1019.5 |
| 20260506172544 | 55 | 306 | 4.3 | 7.0 | 0.00 | 0.00 | 0.00 | 37 | 1019.3 |
| 20260506172041 | 54 | 323 | 2.6 | 6.1 | 0.00 | 0.00 | 0.00 | 37 | 1019.5 |
| 20260506171538 | 54 | 325 | 2.6 | 7.0 | 0.00 | 0.00 | 0.00 | 37 | 1019.5 |
| 20260506171035 | 54 | 335 | 4.3 | 8.7 | 0.00 | 0.00 | 0.00 | 38 | 1019.6 |
| 20260506170604 | 54 | 266 | 4.3 | 12.2 | 0.00 | 0.00 | 0.00 | 36 | 1019.6 |
| 20260506170043 | 54 | 330 | 7.0 | 12.2 | 0.00 | 0.00 | 0.00 | 37 | 1019.6 |
| 20260506165541 | 53 | 276 | 2.6 | 11.3 | 0.00 | 0.00 | 0.00 | 39 | 1019.6 |
| 20260506165041 | 53 | 330 | 5.2 | 11.3 | 0.00 | 0.00 | 0.00 | 38 | 1019.7 |
| 20260506164539 | 53 | 338 | 2.6 | 7.8 | 0.00 | 0.00 | 0.00 | 38 | 1019.8 |
| 20260506164034 | 53 | 317 | 4.3 | 7.8 | 0.00 | 0.00 | 0.00 | 39 | 1019.8 |
| 20260506163532 | 53 | 269 | 3.5 | 8.7 | 0.00 | 0.00 | 0.00 | 38 | 1019.8 |
| 20260506163049 | 53 | 308 | 4.3 | 8.7 | 0.00 | 0.00 | 0.00 | 39 | 1019.8 |
| 20260506162546 | 53 | 311 | 2.6 | 7.0 | 0.00 | 0.00 | 0.00 | 41 | 1019.8 |
| 20260506162042 | 53 | 304 | 2.6 | 7.8 | 0.00 | 0.00 | 0.00 | 40 | 1019.7 |
| 20260506161540 | 53 | 267 | 4.3 | 8.7 | 0.00 | 0.00 | 0.00 | 40 | 1019.6 |
| 20260506161039 | 52 | 354 | 2.6 | 8.7 | 0.00 | 0.00 | 0.00 | 41 | 1019.7 |
| 20260506160607 | 52 | 345 | 4.3 | 8.7 | 0.00 | 0.00 | 0.00 | 41 | 1019.7 |
| 20260506160044 | 52 | 8 | 4.3 | 6.1 | 0.00 | 0.00 | 0.00 | 40 | 1019.7 |
| 20260506155539 | 51 | 309 | 1.7 | 8.7 | 0.00 | 0.00 | 0.00 | 41 | 1019.7 |
| 20260506154542 | 52 | 345 | 3.5 | 9.6 | 0.00 | 0.00 | 0.00 | 41 | 1019.6 |
| 20260506154037 | 52 | 263 | 3.5 | 9.6 | 0.00 | 0.00 | 0.00 | 42 | 1019.6 |
| 20260506153534 | 51 | 326 | 4.3 | 7.8 | 0.00 | 0.00 | 0.00 | 43 | 1019.6 |
| 20260506153034 | 51 | 335 | 4.3 | 10.4 | 0.00 | 0.00 | 0.00 | 40 | 1019.6 |
| 20260506152531 | 51 | 291 | 4.3 | 7.0 | 0.00 | 0.00 | 0.00 | 41 | 1019.6 |
| 20260506152047 | 52 | 340 | 3.5 | 7.0 | 0.00 | 0.00 | 0.00 | 43 | 1019.6 |
| 20260506151543 | 51 | 314 | 4.3 | 7.0 | 0.00 | 0.00 | 0.00 | 43 | 1019.5 |
| 20260506151101 | 51 | 298 | 3.5 | 7.0 | 0.00 | 0.00 | 0.00 | 45 | 1019.6 |
| 20260506150607 | 51 | 352 | 3.5 | 6.1 | 0.00 | 0.00 | 0.00 | 42 | 1019.6 |
| 20260506150045 | 51 | 262 | 3.5 | 6.1 | 0.00 | 0.00 | 0.00 | 42 | 1019.7 |
| 20260506145539 | 50 | 337 | 3.5 | 6.1 | 0.00 | 0.00 | 0.00 | 43 | 1019.7 |
| 20260506145036 | 50 | 288 | 2.6 | 4.3 | 0.00 | 0.00 | 0.00 | 43 | 1019.6 |
| 20260506144533 | 50 | 350 | 2.6 | 5.2 | 0.00 | 0.00 | 0.00 | 45 | 1019.6 |
| 20260506144049 | 50 | 348 | 2.6 | 7.0 | 0.00 | 0.00 | 0.00 | 46 | 1019.6 |
| 20260506143610 | 49 | 345 | 2.6 | 7.0 | 0.00 | 0.00 | 0.00 | 45 | 1019.6 |
| 20260506143044 | 49 | 321 | 1.7 | 5.2 | 0.00 | 0.00 | 0.00 | 47 | 1019.6 |
| 20260506142539 | 49 | 335 | 2.6 | 5.2 | 0.00 | 0.00 | 0.00 | 46 | 1019.5 |
| 20260506142034 | 49 | 301 | 2.6 | 4.3 | 0.00 | 0.00 | 0.00 | 47 | 1019.5 |
| 20260506141531 | 48 | 330 | 0.9 | 3.5 | 0.00 | 0.00 | 0.00 | 47 | 1019.5 |
| 20260506141047 | 48 | 337 | 1.7 | 4.3 | 0.00 | 0.00 | 0.00 | 46 | 1019.5 |
| 20260506140554 | 48 | 340 | 2.6 | 4.3 | 0.00 | 0.00 | 0.00 | 48 | 1019.5 |
| 20260506140030 | 47 | 320 | 1.7 | 4.3 | 0.00 | 0.00 | 0.00 | 52 | 1019.4 |
| 20260506135608 | 47 | 320 | 1.7 | 6.1 | 0.00 | 0.00 | 0.00 | 49 | 1019.3 |
| 20260506135107 | 47 | 313 | 1.7 | 3.5 | 0.00 | 0.00 | 0.00 | 51 | 1019.2 |
| 20260506134543 | 46 | 309 | 1.7 | 3.5 | 0.00 | 0.00 | 0.00 | 51 | 1019.3 |
| 20260506134042 | 46 | 326 | 1.7 | 4.3 | 0.00 | 0.00 | 0.00 | 54 | 1019.2 |
| 20260506133600 | 46 | 326 | 2.6 | 4.3 | 0.00 | 0.00 | 0.00 | 54 | 1019.2 |
| 20260506133039 | 45 | 326 | 2.6 | 4.3 | 0.00 | 0.00 | 0.00 | 56 | 1019.1 |
| 20260506132536 | 45 | 329 | 0.9 | 3.5 | 0.00 | 0.00 | 0.00 | 58 | 1019.0 |
| 20260506132033 | 44 | 329 | 1.7 | 4.3 | 0.00 | 0.00 | 0.00 | 57 | 1019.1 |
| 20260506131531 | 44 | 324 | 1.7 | 3.5 | 0.00 | 0.00 | 0.00 | 60 | 1019.0 |
| 20260506131049 | 43 | 323 | 0.9 | 2.6 | 0.00 | 0.00 | 0.00 | 62 | 1018.9 |
| 20260506130557 | 43 | 323 | 0.9 | 2.6 | 0.00 | 0.00 | 0.00 | 61 | 1018.9 |
| 20260506130035 | 42 | 328 | 0.9 | 2.6 | 0.00 | 0.00 | 0.00 | 63 | 1018.8 |
| 20260506125531 | 42 | 328 | 1.7 | 2.6 | 0.00 | 0.00 | 0.00 | 62 | 1018.9 |
| 20260506125029 | 41 | 328 | 0.9 | 1.7 | 0.00 | 0.00 | 0.00 | 63 | 1018.9 |
| 20260506124547 | 41 | 328 | 0.9 | 1.7 | 0.00 | 0.00 | 0.00 | 63 | 1018.7 |
| 20260506124046 | 40 | 328 | 0.9 | 1.7 | 0.00 | 0.00 | 0.00 | 65 | 1018.6 |
| 20260506123544 | 40 | 328 | 0.0 | 0.9 | 0.00 | 0.00 | 0.00 | 66 | 1018.5 |
| 20260506123043 | 39 | 328 | 0.0 | 0.9 | 0.00 | 0.00 | 0.00 | 69 | 1018.4 |
| 20260506122602 | 39 | 328 | 0.0 | 0.9 | 0.00 | 0.00 | 0.00 | 68 | 1018.3 |
| 20260506122040 | 39 | 328 | 0.0 | 0.0 | 0.00 | 0.00 | 0.00 | 67 | 1018.3 |
| 20260506121537 | 38 | 328 | 0.0 | 0.0 | 0.00 | 0.00 | 0.00 | 66 | 1018.2 |
| 20260506121038 | 38 | 328 | 0.0 | 0.0 | 0.00 | 0.00 | 0.00 | 67 | 1018.1 |
| 20260506120624 | 38 | 328 | 0.0 | 0.0 | 0.00 | 0.00 | 0.00 | 68 | 1018.1 |
| 20260506120047 | 38 | 328 | 0.0 | 0.0 | 0.00 | 0.00 | 0.00 | 67 | 1018.0 |
| 20260506115545 | 39 | 328 | 0.0 | 0.0 | 0.00 | 0.00 | 0.00 | 66 | 1017.9 |
| 20260506115105 | 39 | 328 | 0.0 | 0.0 | 0.00 | 0.00 | 0.00 | 66 | 1017.8 |
| 20260506114541 | 39 | 328 | 0.0 | 0.0 | 0.00 | 0.00 | 0.00 | 65 | 1017.8 |
| 20260506114100 | 39 | 328 | 0.0 | 0.0 | 0.00 | 0.00 | 0.00 | 64 | 1017.6 |
| 20260506113538 | 39 | 328 | 0.0 | 0.0 | 0.00 | 0.00 | 0.00 | 63 | 1017.8 |
| 20260506113035 | 39 | 328 | 0.0 | 0.9 | 0.00 | 0.00 | 0.00 | 63 | 1017.7 |
| 20260506112634 | 40 | 328 | 0.0 | 0.9 | 0.00 | 0.00 | 0.00 | 64 | 1017.6 |
| 20260506112046 | 40 | 328 | 0.0 | 0.9 | 0.00 | 0.00 | 0.00 | 63 | 1017.7 |
| 20260506111545 | 40 | 328 | 0.0 | 0.9 | 0.00 | 0.00 | 0.00 | 62 | 1017.6 |
| 20260506111042 | 40 | 328 | 0.0 | 0.9 | 0.00 | 0.00 | 0.00 | 61 | 1017.6 |
| 20260506110551 | 40 | 328 | 0.0 | 1.7 | 0.00 | 0.00 | 0.00 | 63 | 1017.4 |
| 20260506110031 | 40 | 328 | 0.9 | 2.6 | 0.00 | 0.00 | 0.00 | 63 | 1017.5 |
| 20260506105548 | 40 | 328 | 0.9 | 2.6 | 0.00 | 0.00 | 0.00 | 62 | 1017.5 |
| 20260506105044 | 40 | 328 | 0.0 | 1.7 | 0.00 | 0.00 | 0.00 | 63 | 1017.5 |
| 20260506104604 | 40 | 328 | 0.9 | 1.7 | 0.00 | 0.00 | 0.00 | 62 | 1017.5 |
| 20260506104040 | 40 | 328 | 0.0 | 0.9 | 0.00 | 0.00 | 0.00 | 61 | 1017.6 |
| 20260506103539 | 41 | 328 | 0.0 | 0.0 | 0.00 | 0.00 | 0.00 | 61 | 1017.5 |
| 20260506103037 | 41 | 328 | 0.0 | 0.9 | 0.00 | 0.00 | 0.00 | 61 | 1017.4 |
| 20260506102536 | 41 | 328 | 0.0 | 0.9 | 0.00 | 0.00 | 0.00 | 60 | 1017.4 |
| 20260506102054 | 41 | 328 | 0.0 | 0.9 | 0.00 | 0.00 | 0.00 | 59 | 1017.4 |
| 20260506101534 | 42 | 328 | 0.0 | 1.7 | 0.00 | 0.00 | 0.00 | 59 | 1017.2 |
| 20260506101031 | 42 | 328 | 0.9 | 1.7 | 0.00 | 0.00 | 0.00 | 60 | 1017.2 |
| 20260506100620 | 42 | 328 | 0.9 | 1.7 | 0.00 | 0.00 | 0.00 | 59 | 1017.2 |
| 20260506100038 | 42 | 328 | 0.9 | 2.6 | 0.00 | 0.00 | 0.00 | 58 | 1017.2 |
| 20260506095536 | 43 | 328 | 1.7 | 2.6 | 0.00 | 0.00 | 0.00 | 58 | 1017.1 |
| 20260506095052 | 43 | 328 | 0.9 | 2.6 | 0.00 | 0.00 | 0.00 | 56 | 1017.1 |
| 20260506094548 | 43 | 328 | 1.7 | 2.6 | 0.00 | 0.00 | 0.00 | 57 | 1017.1 |
| 20260506094046 | 43 | 328 | 1.7 | 4.3 | 0.00 | 0.00 | 0.00 | 57 | 1017.0 |
| 20260506093542 | 43 | 327 | 1.7 | 2.6 | 0.00 | 0.00 | 0.00 | 56 | 1017.0 |
| 20260506093039 | 43 | 327 | 1.7 | 2.6 | 0.00 | 0.00 | 0.00 | 57 | 1016.9 |
| 20260506092537 | 44 | 327 | 1.7 | 2.6 | 0.00 | 0.00 | 0.00 | 56 | 1016.8 |
| 20260506092054 | 44 | 327 | 1.7 | 2.6 | 0.00 | 0.00 | 0.00 | 56 | 1016.8 |
| 20260506091531 | 44 | 327 | 0.9 | 1.7 | 0.00 | 0.00 | 0.00 | 55 | 1016.7 |
| 20260506091030 | 44 | 327 | 0.9 | 1.7 | 0.00 | 0.00 | 0.00 | 54 | 1016.7 |
| 20260506090600 | 44 | 327 | 0.9 | 1.7 | 0.00 | 0.00 | 0.00 | 54 | 1016.7 |
| 20260506090039 | 44 | 327 | 0.9 | 1.7 | 0.00 | 0.00 | 0.00 | 55 | 1016.6 |
| 20260506085556 | 44 | 327 | 0.9 | 1.7 | 0.00 | 0.00 | 0.00 | 55 | 1016.6 |
| 20260506085032 | 44 | 327 | 0.9 | 1.7 | 0.00 | 0.00 | 0.00 | 53 | 1016.5 |
| 20260506084549 | 45 | 327 | 0.9 | 0.9 | 0.00 | 0.00 | 0.00 | 52 | 1016.6 |
| 20260506084046 | 45 | 327 | 0.9 | 1.7 | 0.00 | 0.00 | 0.00 | 52 | 1016.5 |
| 20260506083544 | 45 | 327 | 0.9 | 1.7 | 0.00 | 0.00 | 0.00 | 52 | 1016.6 |
| 20260506083045 | 45 | 327 | 0.9 | 2.6 | 0.00 | 0.00 | 0.00 | 53 | 1016.4 |
| 20260506082543 | 45 | 327 | 0.9 | 2.6 | 0.00 | 0.00 | 0.00 | 54 | 1016.4 |
| 20260506082103 | 45 | 327 | 0.9 | 1.7 | 0.00 | 0.00 | 0.00 | 53 | 1016.3 |
| 20260506081559 | 45 | 327 | 0.9 | 1.7 | 0.00 | 0.00 | 0.00 | 52 | 1016.3 |
| 20260506081056 | 45 | 327 | 0.9 | 2.6 | 0.00 | 0.00 | 0.00 | 53 | 1016.2 |
| 20260506080605 | 45 | 327 | 0.9 | 2.6 | 0.00 | 0.00 | 0.00 | 53 | 1016.3 |
| 20260506073049 | 46 | 327 | 0.9 | 2.6 | 0.00 | 0.01 | 0.00 | 50 | 1016.0 |
| 20260506072548 | 46 | 327 | 1.7 | 2.6 | 0.00 | 0.01 | 0.00 | 50 | 1016.0 |
| 20260506072045 | 46 | 326 | 1.7 | 2.6 | 0.00 | 0.01 | 0.00 | 51 | 1016.1 |
| 20260506071544 | 46 | 335 | 0.0 | 2.6 | 0.00 | 0.01 | 0.00 | 49 | 1016.0 |
| 20260506071103 | 46 | 335 | 0.9 | 2.6 | 0.00 | 0.01 | 0.00 | 50 | 1016.1 |
| 20260506070610 | 46 | 335 | 0.9 | 2.6 | 0.00 | 0.01 | 0.00 | 50 | 1016.1 |
| 20260506062035 | 47 | 340 | 1.7 | 3.5 | 0.00 | 0.02 | 0.00 | 47 | 1016.1 |
| 20260506061532 | 47 | 338 | 0.9 | 3.5 | 0.00 | 0.02 | 0.00 | 47 | 1016.0 |
| 20260506061050 | 47 | 342 | 1.7 | 4.3 | 0.00 | 0.02 | 0.00 | 46 | 1015.9 |
| 20260506060602 | 47 | 356 | 2.6 | 4.3 | 0.00 | 0.02 | 0.00 | 46 | 1015.9 |
| 20260506051037 | 50 | 338 | 3.5 | 8.7 | 0.00 | 0.02 | 0.00 | 41 | 1015.4 |
| 20260506050557 | 50 | 329 | 2.6 | 6.1 | 0.00 | 0.02 | 0.00 | 40 | 1015.4 |
| 20260506045038 | 50 | 352 | 3.5 | 7.0 | 0.00 | 0.02 | 0.02 | 40 | 1015.2 |
| 20260506044535 | 50 | 321 | 2.6 | 7.0 | 0.00 | 0.02 | 0.02 | 41 | 1015.1 |
| 20260506044034 | 50 | 326 | 2.6 | 7.0 | 0.00 | 0.02 | 0.02 | 40 | 1015.2 |
| 20260506043532 | 50 | 359 | 4.3 | 7.0 | 0.00 | 0.02 | 0.02 | 41 | 1015.1 |
| 20260506043112 | 50 | 330 | 1.7 | 7.0 | 0.00 | 0.02 | 0.02 | 41 | 1015.1 |
| 20260506042535 | 50 | 358 | 2.6 | 7.0 | 0.00 | 0.02 | 0.02 | 40 | 1015.1 |
| 20260506042035 | 50 | 316 | 2.6 | 6.1 | 0.00 | 0.02 | 0.02 | 40 | 1015.1 |
| 20260506041534 | 50 | 334 | 2.6 | 5.2 | 0.00 | 0.02 | 0.02 | 41 | 1015.0 |
| 20260506041052 | 50 | 315 | 1.7 | 7.8 | 0.00 | 0.02 | 0.02 | 41 | 1015.0 |
| 20260506040559 | 50 | 359 | 2.6 | 7.8 | 0.00 | 0.02 | 0.02 | 43 | 1014.9 |
| 20260506040040 | 50 | 330 | 1.7 | 6.1 | 0.00 | 0.02 | 0.02 | 42 | 1014.9 |
| 20260506035537 | 50 | 338 | 2.6 | 6.1 | 0.00 | 0.02 | 0.02 | 43 | 1014.9 |
| 20260506035034 | 50 | 350 | 3.5 | 6.1 | 0.00 | 0.02 | 0.02 | 41 | 1014.9 |
| 20260506034552 | 50 | 328 | 1.7 | 6.1 | 0.00 | 0.02 | 0.02 | 42 | 1014.9 |
| 20260506034048 | 51 | 328 | 2.6 | 6.1 | 0.00 | 0.02 | 0.02 | 41 | 1014.9 |
| 20260506033605 | 51 | 322 | 2.6 | 5.2 | 0.00 | 0.02 | 0.02 | 41 | 1014.9 |
| 20260506033043 | 51 | 316 | 2.6 | 4.3 | 0.00 | 0.02 | 0.02 | 42 | 1014.8 |
| 20260506032540 | 51 | 310 | 2.6 | 4.3 | 0.00 | 0.02 | 0.02 | 40 | 1014.8 |
| 20260506032038 | 51 | 13 | 2.6 | 5.2 | 0.00 | 0.02 | 0.02 | 40 | 1014.6 |
| 20260506031537 | 51 | 350 | 2.6 | 5.2 | 0.00 | 0.02 | 0.02 | 40 | 1014.6 |
| 20260506031035 | 51 | 3 | 1.7 | 5.2 | 0.00 | 0.02 | 0.02 | 42 | 1014.6 |
| 20260506030604 | 51 | 3 | 1.7 | 5.2 | 0.00 | 0.02 | 0.02 | 40 | 1014.5 |
| 20260506030046 | 51 | 301 | 2.6 | 5.2 | 0.00 | 0.02 | 0.02 | 39 | 1014.4 |
| 20260506025544 | 52 | 307 | 1.7 | 9.6 | 0.00 | 0.02 | 0.02 | 39 | 1014.4 |
| 20260506025042 | 52 | 336 | 2.6 | 9.6 | 0.00 | 0.02 | 0.02 | 39 | 1014.3 |
| 20260506024539 | 52 | 350 | 4.3 | 8.7 | 0.00 | 0.02 | 0.02 | 38 | 1014.2 |
| 20260506024037 | 52 | 349 | 4.3 | 8.7 | 0.00 | 0.02 | 0.02 | 38 | 1014.2 |
| 20260506023534 | 52 | 342 | 3.5 | 5.2 | 0.00 | 0.02 | 0.02 | 39 | 1014.0 |
| 20260506023112 | 52 | 2 | 2.6 | 7.0 | 0.00 | 0.02 | 0.02 | 38 | 1014.0 |
| 20260506022548 | 52 | 330 | 4.3 | 7.0 | 0.00 | 0.02 | 0.02 | 38 | 1014.0 |
| 20260506022046 | 52 | 333 | 3.5 | 6.1 | 0.00 | 0.02 | 0.02 | 38 | 1013.8 |
| 20260506021543 | 52 | 10 | 2.6 | 10.4 | 0.00 | 0.02 | 0.02 | 37 | 1013.8 |
| 20260506021042 | 52 | 313 | 4.3 | 10.4 | 0.00 | 0.02 | 0.02 | 37 | 1013.8 |
| 20260506020610 | 53 | 301 | 5.2 | 9.6 | 0.00 | 0.02 | 0.02 | 38 | 1013.8 |
| 20260506020048 | 53 | 342 | 2.6 | 9.6 | 0.00 | 0.02 | 0.02 | 38 | 1013.7 |
| 20260506015547 | 53 | 347 | 3.5 | 9.6 | 0.00 | 0.02 | 0.02 | 38 | 1013.7 |
| 20260506015045 | 53 | 349 | 4.3 | 9.6 | 0.00 | 0.02 | 0.02 | 37 | 1013.5 |
| 20260506014544 | 53 | 359 | 3.5 | 7.8 | 0.00 | 0.02 | 0.02 | 38 | 1013.5 |
| 20260506014045 | 53 | 345 | 3.5 | 9.6 | 0.00 | 0.02 | 0.02 | 38 | 1013.4 |
| 20260506013542 | 53 | 359 | 4.3 | 9.6 | 0.00 | 0.02 | 0.02 | 38 | 1013.4 |
| 20260506013100 | 53 | 304 | 3.5 | 10.4 | 0.00 | 0.02 | 0.02 | 37 | 1013.3 |
| 20260506012537 | 53 | 353 | 4.3 | 10.4 | 0.00 | 0.02 | 0.02 | 38 | 1013.2 |
| 20260506012035 | 53 | 360 | 4.3 | 14.8 | 0.00 | 0.02 | 0.02 | 37 | 1013.3 |
| 20260506011552 | 53 | 334 | 4.3 | 14.8 | 0.00 | 0.02 | 0.02 | 38 | 1013.1 |
| 20260506011050 | 53 | 359 | 4.3 | 12.2 | 0.00 | 0.02 | 0.02 | 38 | 1013.0 |
| 20260506010619 | 53 | 328 | 6.1 | 12.2 | 0.00 | 0.02 | 0.02 | 38 | 1013.1 |
| 20260506010036 | 54 | 312 | 3.5 | 7.8 | 0.00 | 0.02 | 0.02 | 39 | 1013.0 |
| 20260506005534 | 54 | 355 | 3.5 | 9.6 | 0.00 | 0.02 | 0.02 | 38 | 1013.0 |
| 20260506005051 | 54 | 330 | 4.3 | 9.6 | 0.00 | 0.02 | 0.02 | 38 | 1013.0 |
| 20260506004547 | 54 | 325 | 4.3 | 10.4 | 0.00 | 0.02 | 0.02 | 37 | 1012.9 |
| 20260506004043 | 54 | 332 | 4.3 | 10.4 | 0.00 | 0.02 | 0.02 | 36 | 1012.9 |
| 20260506003048 | 54 | 349 | 3.5 | 10.4 | 0.00 | 0.02 | 0.02 | 37 | 1012.7 |
| 20260506002608 | 54 | 355 | 5.2 | 9.6 | 0.00 | 0.02 | 0.02 | 37 | 1012.7 |
| 20260506002107 | 54 | 302 | 7.0 | 9.6 | 0.00 | 0.02 | 0.02 | 37 | 1012.7 |
| 20260506001604 | 54 | 305 | 1.7 | 10.4 | 0.00 | 0.02 | 0.02 | 37 | 1012.8 |
| 20260506001041 | 55 | 347 | 3.5 | 10.4 | 0.00 | 0.02 | 0.02 | 36 | 1012.8 |
| 20260506000628 | 55 | 333 | 5.2 | 13.0 | 0.00 | 0.02 | 0.02 | 36 | 1012.8 |
| 20260506000046 | 55 | 1 | 6.1 | 13.0 | 0.00 | 0.02 | 0.02 | 35 | 1012.7 |
| 20260505235545 | 55 | 356 | 3.5 | 13.0 | 0.00 | 0.02 | 0.02 | 36 | 1012.6 |
| 20260505235105 | 55 | 314 | 5.2 | 13.0 | 0.00 | 0.02 | 0.02 | 37 | 1012.6 |
| 20260505234540 | 55 | 325 | 3.5 | 11.3 | 0.00 | 0.02 | 0.02 | 37 | 1012.7 |
| 20260505234042 | 56 | 359 | 4.3 | 11.3 | 0.00 | 0.02 | 0.02 | 37 | 1012.6 |
| 20260505233540 | 56 | 328 | 4.3 | 12.2 | 0.00 | 0.02 | 0.02 | 38 | 1012.5 |
| 20260505233039 | 56 | 321 | 3.5 | 12.2 | 0.00 | 0.02 | 0.02 | 36 | 1012.4 |
| 20260505232557 | 56 | 302 | 4.3 | 9.6 | 0.00 | 0.02 | 0.02 | 36 | 1012.3 |
| 20260505232035 | 56 | 306 | 3.5 | 9.6 | 0.00 | 0.02 | 0.02 | 36 | 1012.4 |
| 20260505231533 | 56 | 324 | 4.3 | 9.6 | 0.00 | 0.02 | 0.02 | 36 | 1012.3 |
| 20260505231051 | 56 | 338 | 2.6 | 9.6 | 0.00 | 0.02 | 0.02 | 37 | 1012.3 |
| 20260505230559 | 56 | 335 | 3.5 | 8.7 | 0.00 | 0.02 | 0.02 | 34 | 1012.4 |
| 20260505230038 | 56 | 321 | 3.5 | 10.4 | 0.00 | 0.02 | 0.02 | 35 | 1012.4 |
| 20260505225535 | 57 | 340 | 5.2 | 10.4 | 0.00 | 0.02 | 0.02 | 36 | 1012.4 |
| 20260505225032 | 57 | 337 | 3.5 | 8.7 | 0.00 | 0.02 | 0.02 | 37 | 1012.3 |
| 20260505224549 | 57 | 345 | 2.6 | 8.7 | 0.00 | 0.02 | 0.02 | 38 | 1012.2 |
| 20260505224048 | 57 | 342 | 2.6 | 8.7 | 0.00 | 0.02 | 0.02 | 37 | 1012.3 |
| 20260505223609 | 57 | 321 | 4.3 | 8.7 | 0.00 | 0.02 | 0.02 | 36 | 1012.3 |
| 20260505223046 | 57 | 332 | 4.3 | 8.7 | 0.00 | 0.02 | 0.02 | 37 | 1012.4 |
| 20260505222545 | 57 | 307 | 5.2 | 8.7 | 0.00 | 0.02 | 0.02 | 36 | 1012.2 |
| 20260505222038 | 57 | 338 | 3.5 | 8.7 | 0.00 | 0.02 | 0.02 | 37 | 1012.3 |
| 20260505221539 | 57 | 336 | 1.7 | 8.7 | 0.00 | 0.02 | 0.02 | 39 | 1012.1 |
| 20260505221036 | 57 | 330 | 3.5 | 7.0 | 0.00 | 0.02 | 0.02 | 38 | 1012.2 |
| 20260505220604 | 57 | 320 | 2.6 | 6.1 | 0.00 | 0.02 | 0.02 | 38 | 1012.2 |
| 20260505220042 | 57 | 332 | 1.7 | 6.1 | 0.00 | 0.02 | 0.02 | 41 | 1012.2 |
| 20260505215536 | 57 | 322 | 2.6 | 6.1 | 0.00 | 0.02 | 0.02 | 39 | 1012.2 |
| 20260505215034 | 57 | 286 | 3.5 | 11.3 | 0.00 | 0.02 | 0.02 | 38 | 1012.3 |
| 20260505214551 | 57 | 302 | 3.5 | 9.6 | 0.00 | 0.02 | 0.02 | 36 | 1012.3 |
| 20260505214110 | 57 | 344 | 3.5 | 7.0 | 0.00 | 0.02 | 0.02 | 38 | 1012.3 |
| 20260505213548 | 57 | 359 | 3.5 | 8.7 | 0.00 | 0.02 | 0.02 | 38 | 1012.4 |
| 20260505213047 | 57 | 309 | 4.3 | 16.5 | 0.00 | 0.02 | 0.02 | 38 | 1012.5 |
| 20260505212545 | 57 | 335 | 7.0 | 16.5 | 0.00 | 0.02 | 0.02 | 37 | 1012.5 |
| 20260505212105 | 57 | 312 | 4.3 | 9.6 | 0.00 | 0.02 | 0.02 | 37 | 1012.6 |
| 20260505211542 | 57 | 297 | 3.5 | 10.4 | 0.00 | 0.02 | 0.02 | 37 | 1012.5 |
| 20260505211102 | 57 | 330 | 6.1 | 11.3 | 0.00 | 0.02 | 0.02 | 37 | 1012.5 |
| 20260505210552 | 57 | 314 | 4.3 | 11.3 | 0.00 | 0.02 | 0.02 | 38 | 1012.5 |
| 20260505210032 | 58 | 337 | 4.3 | 7.8 | 0.00 | 0.02 | 0.02 | 37 | 1012.6 |
| 20260505205611 | 58 | 337 | 3.5 | 7.8 | 0.00 | 0.02 | 0.02 | 37 | 1012.6 |
| 20260505205048 | 58 | 339 | 3.5 | 6.1 | 0.00 | 0.02 | 0.02 | 39 | 1012.6 |
| 20260505204545 | 58 | 292 | 2.6 | 7.0 | 0.00 | 0.02 | 0.02 | 36 | 1012.5 |
| 20260505204044 | 57 | 306 | 3.5 | 13.0 | 0.00 | 0.02 | 0.02 | 36 | 1012.7 |
| 20260505203601 | 58 | 310 | 5.2 | 13.0 | 0.00 | 0.02 | 0.02 | 37 | 1012.7 |
| 20260505203041 | 58 | 330 | 4.3 | 10.4 | 0.00 | 0.02 | 0.02 | 37 | 1012.6 |
| 20260505202538 | 58 | 327 | 5.2 | 13.0 | 0.00 | 0.02 | 0.02 | 39 | 1012.7 |
| 20260505202036 | 58 | 311 | 4.3 | 10.4 | 0.00 | 0.02 | 0.02 | 37 | 1012.7 |
| 20260505201535 | 58 | 359 | 4.3 | 12.2 | 0.00 | 0.02 | 0.02 | 39 | 1012.9 |
| 20260505201111 | 58 | 302 | 4.3 | 12.2 | 0.00 | 0.02 | 0.02 | 36 | 1012.9 |
| 20260505200600 | 58 | 335 | 5.2 | 10.4 | 0.00 | 0.02 | 0.02 | 36 | 1012.8 |
| 20260505195541 | 58 | 264 | 3.5 | 9.6 | 0.00 | 0.02 | 0.02 | 36 | 1012.9 |
| 20260505195038 | 58 | 314 | 4.3 | 11.3 | 0.00 | 0.02 | 0.02 | 38 | 1013.0 |
| 20260505194555 | 58 | 31 | 4.3 | 11.3 | 0.00 | 0.02 | 0.02 | 39 | 1013.0 |
| 20260505194050 | 57 | 316 | 5.2 | 7.8 | 0.00 | 0.02 | 0.02 | 39 | 1013.0 |